Tracking 25963 objects as of 13-Aug-2022
HD Live streaming from Space Station
objects crossing your sky now

STARLINK-3975

Track STARLINK-3975 now!
10-day predictions
STARLINK-3975 is classified as:


NORAD ID: 52620
Int'l Code: 2022-052Y
Perigee: 545.8 km
Apogee: 548.0 km
Inclination: 53.2 °
Period: 95.4 minutes
Semi major axis: 6917 km
RCS: Unknown
Launch date: May 14, 2022
Source: United States (US)
Launch site: AIR FORCE EASTERN TEST RANGE (AFETR)
aabbcc
Your satellite tracking list
Your tracking list is empty




NASA's NSSDC Master Catalog

Two Line Element Set (TLE):
1 52620U 22052Y   22224.83335648  .00034347  00000-0  21663-2 0  9999
2 52620  53.2169  21.8457 0001560  67.4050  66.6019 15.08829675 14165
Source of the keplerian elements: AFSPC